Nuiqsut, AK

10:57 AM AKDT on April 29, 2017 (GMT -0800)
Nuiqsut

Weather History for PAQT - January, 2013

Change the Weather History Date:

Monday, January 7, 2013

  Actual Average (PAKU) Record (PAKU)
Temperature  
Mean Temperature -14 °F -  
Max Temperature -9 °F -5 °F 32 °F (2002)
Min Temperature -20 °F -15 °F -41 °F (2001)
Degree Days  
Heating Degree Days 80    
Moisture  
Dew Point -24 °F    
Average Humidity 73    
Maximum Humidity 86    
Minimum Humidity 45    
Precipitation  
Precipitation 0.00 in - - ()
Sea Level Pressure  
Sea Level Pressure 29.87 in    
Wind  
Wind Speed 4 mph (NNE)    
Max Wind Speed 9 mph    
Max Gust Speed -    
Visibility 7 miles    
Events      
Averages and records for this station are not official NWS values.
T = Trace of Precipitation, MM = Missing Value Source: NWS Daily Summary

Daily Weather History Graph

Daily Weather History Graph

Search for Another Location

Airport or City:

Trip Planner

Search our weather history database for the weather conditions in past years. The results will help you decide how hot, cold, wet, or windy it might be!

Date:

Astronomy

Jan. 07, 2013 Rise Set
Actual Time 12:38 PM AKST 1:43 PM AKST
Civil Twilight 10:44 AM AKST 3:37 PM AKST
Nautical Twilight 9:03 AM AKST 5:17 PM AKST
Astronomical Twilight 7:45 AM AKST 6:36 PM AKST
Moon 7:35 AM AKST (1/7) 10:33 AM AKST (1/7)
Length of Visible Light 4h 52m
Length of Day
1h 04m
Waning Crescent, 21% of the Moon is Illuminated
Jan 7
Waning Crescent
Jan 11
New
Jan 18
First Quarter
Jan 26
Full
Feb 3
Last Quarter

Hourly Weather History & Observations

Time (AKST) Temp. Windchill Dew Point Humidity Pressure Visibility Wind Dir Wind Speed Gust Speed Precip Events Conditions
12:53 AM -20.0 °F -35.3 °F -25.1 °F 78% 29.86 in 10.0 mi North 5.8 mph - N/A   Clear
1:53 AM -20.9 °F -36.4 °F -25.1 °F 81% 29.86 in 10.0 mi North 5.8 mph - N/A   Clear
3:53 AM -20.9 °F - -27.0 °F 73% 29.84 in 10.0 mi Calm Calm - N/A   Clear
4:53 AM -20.9 °F -34.3 °F -25.1 °F 81% 29.84 in 10.0 mi NNE 4.6 mph - N/A   Clear
5:53 AM -20.9 °F -31.7 °F -25.1 °F 81% 29.83 in 10.0 mi NNE 3.5 mph - N/A   Clear
6:53 AM -20.9 °F -31.7 °F -26.0 °F 77% 29.83 in 10.0 mi North 3.5 mph - N/A   Clear
7:53 AM -18.9 °F -34.0 °F -24.0 °F 78% 29.84 in 10.0 mi NNE 5.8 mph - N/A   Overcast
8:53 AM -18.9 °F -34.0 °F -23.1 °F 81% 29.84 in 10.0 mi NNE 5.8 mph - N/A   Mostly Cloudy
9:32 AM -18.4 °F -33.4 °F -23.8 °F 76% 29.83 in 10.0 mi NNE 5.8 mph - N/A   Scattered Clouds
9:53 AM -18.0 °F -33.0 °F -22.0 °F 82% 29.84 in 10.0 mi NNE 5.8 mph - N/A   Scattered Clouds
10:02 AM -18.4 °F -33.4 °F -23.8 °F 76% 29.83 in 10.0 mi NNE 5.8 mph - N/A   Mostly Cloudy
10:53 AM -17.0 °F -29.7 °F -20.9 °F 82% 29.84 in 10.0 mi NE 4.6 mph - N/A   Mostly Cloudy
11:53 AM -17.0 °F - -24.0 °F 70% 29.86 in 2.5 mi Calm Calm - N/A   Haze
12:00 PM -16.6 °F - -23.8 °F 70% 29.85 in 6.0 mi Calm Calm - N/A   Haze
12:26 PM -9.4 °F - -25.6 °F 45% 29.86 in 2.5 mi Calm Calm - N/A   Haze
12:35 PM -11.2 °F - -23.8 °F 54% 29.86 in 6.0 mi Calm Calm - N/A   Haze
12:53 PM -9.9 °F - -23.1 °F 52% 29.86 in 3.0 mi Calm Calm - N/A   Haze
1:00 PM -9.4 °F - -23.8 °F 49% 29.85 in 2.0 mi Calm Calm - N/A   Haze
1:10 PM -11.2 °F - -22.0 °F 59% 29.85 in 3.0 mi Calm Calm - N/A   Haze
1:28 PM -11.2 °F - -23.8 °F 54% 29.85 in 1.8 mi Calm Calm - N/A   Haze
1:42 PM -14.8 °F - -20.2 °F 77% 29.85 in 3.0 mi Calm Calm - N/A   Haze
1:53 PM -11.9 °F - -24.0 °F 55% 29.86 in 4.0 mi Calm Calm - N/A   Haze
2:28 PM -14.8 °F - -20.2 °F 77% 29.86 in 1.8 mi Calm Calm - N/A   Haze
2:36 PM -13.0 °F -22.7 °F -20.2 °F 70% 29.86 in 3.0 mi NNW 3.5 mph - N/A   Haze
2:53 PM -15.0 °F - -20.0 °F 78% 29.87 in 4.0 mi Calm Calm - N/A   Haze
3:53 PM -17.0 °F - -22.0 °F 78% 29.88 in 9.0 mi Calm Calm - N/A   Overcast
4:53 PM -20.0 °F -30.7 °F -24.0 °F 82% 29.88 in 6.0 mi SSE 3.5 mph - N/A   Overcast
5:53 PM -20.9 °F -34.3 °F -24.0 °F 86% 29.89 in 4.0 mi SW 4.6 mph - N/A   Overcast
6:53 PM -18.9 °F -34.0 °F -23.1 °F 81% 29.90 in 7.0 mi West 5.8 mph - N/A   Overcast
7:53 PM -20.9 °F -38.1 °F -25.1 °F 81% 29.90 in 10.0 mi South 6.9 mph - N/A   Overcast
8:53 PM -20.9 °F -39.7 °F -26.0 °F 77% 29.91 in 10.0 mi South 8.1 mph - N/A   Overcast
9:17 PM -20.2 °F -37.3 °F -25.6 °F 76% 29.91 in 10.0 mi South 6.9 mph - N/A   Overcast
9:53 PM -20.0 °F -37.1 °F -24.0 °F 82% 29.92 in 10.0 mi SSW 6.9 mph - N/A   Overcast
10:53 PM -18.9 °F -38.6 °F -23.1 °F 81% 29.93 in 10.0 mi South 9.2 mph - N/A   Overcast
11:53 PM -18.0 °F -37.5 °F -22.0 °F 82% 29.94 in 8.0 mi South 9.2 mph - N/A   Overcast